Flag for U.S.A. Weather past 2 weeks in Greeley, Colorado, U.S.A.

Now
30 °F

Sunny.


Feels Like: 21 °F
Forecast: 20 / 51 °F
Wind: 10 mph from Southeast

Location: Greeley / Weld

Current Time: Feb 1, 2015 at 5:32:28 PM

Latest Report: Feb 1, 2015 at 4:55 PM


Visibility: 10 mi

Pressure: 30.15 "Hg

Humidity: 43%

Dew point: 10 °F

Location of GreeleyLocation

Historic Weather in Greeley — Graph

°F

Greeley temperature yesterday

Maximum temperature yesterday: 41 °F (at 3:55 PM)
Minimum temperature yesterday: 30 °F (at 5:15 AM)
Average temperature yesterday: 35 °F

Past Weeks' High & Low Weather Summary

 TemperatureHumidityPressure
High72 °F (Jan 26, 2:15 PM)80% (Jan 20, 6:15 AM)30.51 "Hg (Jan 20, 6:15 AM)
Low12 °F (Jan 22, 3:35 AM)20% (Jan 26, 2:15 PM)29.80 "Hg (Jan 31, 1:35 PM)
Average35 °F58%30.13 "Hg
* Reported Jan 17 4:15 PM — Feb 1 4:35 PM, Greeley, Weather by CustomWeather, © 2014

Note: Actual official high and low records may vary slightly from our data, if they occured in-between our weather recording intervals... More about our weather records

Advertising

Greeley weather history for previous 24 hours

 ConditionsComfort  
Time TempWeatherWind HumidityBarometerVisibility
4:35 PM
Feb 1
32 °FSunny.12 mph47%30.15 "Hg10 mi
4:15 PM32 °FSunny.10 mph51%30.14 "Hg10 mi
3:55 PM32 °FSunny.9 mph51%30.14 "Hg10 mi
3:35 PM34 °FSunny.14 mph44%30.14 "Hg10 mi
3:15 PM34 °FSunny.10 mph44%30.13 "Hg10 mi
2:55 PM34 °FSunny.7 mph44%30.14 "Hg10 mi
2:35 PM32 °FSunny.3 mph51%30.14 "Hg10 mi
2:15 PM32 °FSunny.No wind44%30.14 "Hg10 mi
1:55 PM30 °FSunny.3 mph43%30.14 "Hg10 mi
1:35 PM28 °FSunny.6 mph51%30.15 "Hg10 mi
1:15 PM28 °FSunny.9 mph55%30.16 "Hg10 mi
12:55 PM28 °FSunny.10 mph59%30.17 "Hg10 mi
12:35 PM27 °FSunny.10 mph64%30.17 "Hg6 mi
12:15 PM27 °FPassing clouds.12 mph59%30.17 "Hg10 mi
11:55 AM27 °FMostly cloudy.10 mph54%30.18 "Hg10 mi
11:35 AM28 °FPartly sunny.8 mph51%30.18 "Hg10 mi
11:15 AM28 °FScattered clouds.5 mph51%30.18 "Hg10 mi
10:55 AM27 °FSunny.No wind54%30.19 "Hg10 mi
10:35 AM27 °FSunny.6 mph54%30.19 "Hg10 mi
10:15 AM25 °FPassing clouds.7 mph59%30.19 "Hg10 mi
9:55 AM25 °FPassing clouds.6 mph59%30.19 "Hg10 mi
9:35 AM25 °FPassing clouds.9 mph59%30.18 "Hg10 mi
9:15 AM25 °FPassing clouds.7 mph59%30.18 "Hg10 mi
8:55 AM23 °FPassing clouds.9 mph63%30.17 "Hg10 mi
8:35 AM23 °FSunny.8 mph63%30.16 "Hg10 mi
8:15 AM23 °FPassing clouds.8 mph58%30.15 "Hg10 mi
7:55 AM23 °FPassing clouds.9 mph58%30.14 "Hg10 mi
7:35 AM23 °FSunny.9 mph58%30.14 "Hg10 mi
7:15 AM23 °FPassing clouds.13 mph63%30.13 "Hg10 mi
6:55 AM23 °FPassing clouds.7 mph63%30.12 "Hg10 mi
6:35 AM23 °FPassing clouds.5 mph63%30.11 "Hg10 mi
6:15 AM23 °FPartly cloudy.No wind63%30.11 "Hg10 mi
5:55 AM23 °FPassing clouds.6 mph63%30.09 "Hg10 mi
5:35 AM23 °FPassing clouds.10 mph63%30.09 "Hg10 mi
4:55 AM25 °FPassing clouds.10 mph59%30.07 "Hg10 mi
4:35 AM25 °FPassing clouds.15 mph59%30.06 "Hg10 mi
4:15 AM25 °FPassing clouds.14 mph59%30.07 "Hg10 mi
3:55 AM25 °FPassing clouds.14 mph59%30.06 "Hg10 mi
3:35 AM25 °FPassing clouds.9 mph59%30.06 "Hg10 mi
3:15 AM25 °FPassing clouds.9 mph59%30.05 "Hg10 mi
2:55 AM25 °FPassing clouds.9 mph63%30.04 "Hg10 mi
2:35 AM27 °FPassing clouds.10 mph64%30.03 "Hg10 mi
2:15 AM27 °FPassing clouds.13 mph64%30.03 "Hg10 mi
1:55 AM27 °FPassing clouds.13 mph64%30.02 "Hg10 mi
1:35 AM27 °FPassing clouds.14 mph64%30.02 "Hg10 mi
1:15 AM28 °FPassing clouds.20 mph59%30.02 "Hg10 mi
12:55 AM28 °FPassing clouds.22 mph64%30.02 "Hg10 mi
12:35 AM30 °FMostly cloudy.25 mph64%30.00 "Hg10 mi
12:15 AM30 °FOvercast.23 mph64%29.99 "Hg10 mi
11:55 PM
Jan 31
32 °FOvercast.23 mph64%29.97 "Hg10 mi
11:35 PM32 °FOvercast.22 mph64%29.96 "Hg10 mi
11:15 PM34 °FMostly cloudy.22 mph60%29.95 "Hg10 mi
10:55 PM34 °FPassing clouds.21 mph60%29.95 "Hg10 mi
10:35 PM34 °FPassing clouds.22 mph60%29.93 "Hg10 mi
10:15 PM32 °FPassing clouds.15 mph69%29.91 "Hg10 mi
9:55 PM34 °FPartly cloudy.17 mph70%29.91 "Hg9 mi
9:35 PM34 °FPartly cloudy.13 mph75%29.91 "Hg7 mi
9:15 PM36 °FPartly cloudy.18 mph70%29.90 "Hg10 mi
8:55 PM34 °FMostly cloudy.5 mph75%29.90 "Hg7 mi
8:35 PM34 °FPassing clouds.No wind75%29.89 "Hg10 mi
8:15 PM34 °FOvercast.No wind75%29.86 "Hg10 mi
7:55 PM34 °FPassing clouds.No wind75%29.86 "Hg10 mi
7:35 PM36 °FPassing clouds.6 mph70%29.84 "Hg10 mi
7:15 PM36 °FPassing clouds.5 mph70%29.85 "Hg10 mi
6:55 PM37 °FOvercast.No wind70%29.84 "Hg10 mi
6:35 PM36 °FPassing clouds.No wind70%29.83 "Hg10 mi
6:15 PM37 °FPassing clouds.No wind65%29.83 "Hg10 mi
5:55 PM37 °FPassing clouds.6 mph70%29.82 "Hg10 mi
5:35 PM37 °FPartly cloudy.3 mph65%29.82 "Hg10 mi
5:15 PM39 °FOvercast.8 mph61%29.82 "Hg10 mi
Weather by CustomWeather, © 2014

See weather overviewHow to use our weather pages